Tracking 18942 objects as of 18-Jan-2018
HD Live streaming from Space Station
objects crossing your sky now

COSMOS 1650 (GLONASS)

Track COSMOS 1650 (GLONASS) now!
COSMOS 1650 (GLONASS) is classified as:


NORAD ID: 15697
Int'l Code: 1985-037A
Perigee: 19,055.8 km
Apogee: 19,218.2 km
Inclination: 64.1 °
Period: 675.7 minutes
Semi major axis: 25507 km
RCS: 1.9242 m2 (large)
Launch date: May 17, 1985
Source: Commonwealth of Independent States (former USSR) (CIS)
Launch site: TYURATAM MISSILE AND SPACE COMPLEX (TTMTR)
SV:
aabbcc
Your satellite tracking list
Your tracking list is empty




NASA's NSSDC Master Catalog

Two Line Element Set (TLE):
1 15697U 85037A   18017.51848878 +.00000051 +00000-0 +00000-0 0  9993
2 15697 064.1108 178.8375 0031850 012.0928 250.9381 02.13102410230814
Source of the keplerian elements: AFSPC